Powrót do katalogu

DELTA 1 R/B

AktywnySSO
NORAD 6921·ROCKET BODY·🇺🇸 United States

Wystrzelony Nov 6, 1973 z Vandenberg Space Force Base

Loading…

Następne Przeloty (najbliższe 24 godziny)

TLE

ŚwieżeSource: Space-Track

Epoka: Sep 14, 2026, 13:06 UTC

1 06921U 73086B   26257.54624577 -.00000040  00000-0  43557-4 0  9997
2 06921 102.3339 288.1799 0014956 107.0041 253.2660 12.37070099401381

Śledź DELTA 1 R/B w czasie rzeczywistym z AllMySat

Download on the App Store